Russell, KS

1:25 PM CDT on September 29, 2016 (GMT -0500)
Russell Municipal

Weather History for KRSL - September, 2013

Change the Weather History Date:

Saturday, September 21, 2013

  Actual Average Record
Temperature  
Mean Temperature 66 °F -  
Max Temperature 84 °F 78 °F 105 °F (1956)
Min Temperature 48 °F 52 °F 31 °F (1983)
Cooling Degree Days 1    
Growing Degree Days 16 (Base 50)    
Moisture  
Dew Point 47 °F    
Average Humidity 56    
Maximum Humidity 86    
Minimum Humidity 25    
Precipitation  
Precipitation 0.00 in - - ()
Sea Level Pressure  
Sea Level Pressure 29.93 in    
Wind  
Wind Speed 9 mph (SSW)    
Max Wind Speed 17 mph    
Max Gust Speed 24 mph    
Visibility 10 miles    
Events      
Averages and records for this station are not official NWS values.
T = Trace of Precipitation, MM = Missing Value Source: NWS Daily Summary

Daily Weather History Graph

Daily Weather History Graph

Search for Another Location

Airport or City:

Trip Planner

Search our weather history database for the weather conditions in past years. The results will help you decide how hot, cold, wet, or windy it might be!

Date:

Astronomy

Sep. 21, 2013 Rise Set
Actual Time 7:22 AM CDT 7:33 PM CDT
Civil Twilight 6:55 AM CDT 7:59 PM CDT
Nautical Twilight 6:24 AM CDT 8:31 PM CDT
Astronomical Twilight 5:52 AM CDT 9:02 PM CDT
Moon 8:47 PM CDT (9/21) 9:40 AM CDT (9/21)
Length of Visible Light 13h 04m
Length of Day
12h 11m
Waning Gibbous, 94% of the Moon is Illuminated
Sep 21
Waning Gibbous
Sep 26
Last Quarter
Oct 4
New
Oct 11
First Quarter
Oct 18
Full

Hourly Weather History & Observations

Time (CDT) Temp. Dew Point Humidity Pressure Visibility Wind Dir Wind Speed Gust Speed Precip Events Conditions
12:53 AM 54.0 °F 48.9 °F 83% 30.01 in 10.0 mi SSW 5.8 mph - N/A   Clear
1:53 AM 55.9 °F 48.0 °F 75% 30.01 in 10.0 mi SSW 6.9 mph - N/A   Clear
2:53 AM 55.0 °F 48.0 °F 77% 30.00 in 10.0 mi SSW 5.8 mph - N/A   Clear
3:53 AM 52.0 °F 46.9 °F 83% 30.00 in 10.0 mi South 8.1 mph - N/A   Clear
4:53 AM 52.0 °F 46.9 °F 83% 29.99 in 10.0 mi SSE 8.1 mph - N/A   Clear
5:53 AM 51.1 °F 46.9 °F 86% 30.00 in 10.0 mi South 8.1 mph - N/A   Clear
6:53 AM 48.9 °F 45.0 °F 86% 30.01 in 10.0 mi South 8.1 mph - N/A   Clear
7:53 AM 51.1 °F 46.9 °F 86% 30.01 in 10.0 mi SSW 6.9 mph - N/A   Clear
8:53 AM 55.9 °F 48.9 °F 77% 30.01 in 10.0 mi SW 8.1 mph - N/A   Clear
9:53 AM 64.0 °F 52.0 °F 65% 30.00 in 10.0 mi SW 8.1 mph - N/A   Clear
10:53 AM 71.1 °F 51.1 °F 49% 29.99 in 10.0 mi SW 12.7 mph - N/A   Clear
11:53 AM 77.0 °F 46.9 °F 34% 29.97 in 10.0 mi SW 15.0 mph - N/A   Clear
12:53 PM 79.0 °F 44.1 °F 29% 29.95 in 10.0 mi SW 15.0 mph 20.7 mph N/A   Clear
1:53 PM 82.0 °F 43.0 °F 25% 29.92 in 10.0 mi South 12.7 mph 19.6 mph N/A   Clear
2:53 PM 82.0 °F 45.0 °F 27% 29.89 in 10.0 mi SSW 17.3 mph 24.2 mph N/A   Clear
3:53 PM 84.0 °F 45.0 °F 25% 29.87 in 10.0 mi South 15.0 mph 20.7 mph N/A   Clear
4:53 PM 82.9 °F 44.1 °F 25% 29.85 in 10.0 mi South 12.7 mph 21.9 mph N/A   Clear
5:53 PM 82.0 °F 44.1 °F 26% 29.83 in 10.0 mi South 15.0 mph - N/A   Clear
6:53 PM 79.0 °F 44.1 °F 29% 29.83 in 10.0 mi South 12.7 mph - N/A   Clear
7:53 PM 69.1 °F 46.0 °F 44% 29.85 in 10.0 mi South 8.1 mph - N/A   Clear
8:53 PM 64.9 °F 46.9 °F 52% 29.85 in 10.0 mi South 9.2 mph - N/A   Clear
9:53 PM 63.0 °F 46.9 °F 56% 29.85 in 10.0 mi South 8.1 mph - N/A   Clear
10:53 PM 64.0 °F 48.0 °F 56% 29.85 in 10.0 mi South 11.5 mph - N/A   Clear
11:53 PM 63.0 °F 48.0 °F 58% 29.84 in 10.0 mi South 11.5 mph - N/A   Clear